CW9703 Weather Reports


time (UTC)temp
C
wind
direction
speed
KPH
gust
KPH
rain 1hr
cm
rain 24hr
cm
rain mn
cm
humidity
%
barometer
mb
20240723051749 21 266 0.0 0.0 0.00 0.00 0.00 90 1015.1
20240723045549 21 261 1.6 4.8 0.00 0.00 0.00 91 1015.0
20240723043417 21 254 9.7 11.3 0.00 0.00 0.00 92 1015.1
20240723041147 21 223 8.0 12.9 0.00 0.00 0.00 91 1015.1
20240723034947 21 360 11.3 14.5 0.00 0.00 0.00 91 1015.0
20240723032746 21 360 6.4 16.1 0.00 0.00 0.00 92 1015.1
20240723030616 21 176 11.3 16.1 0.00 0.00 0.00 92 1015.2
20240723024346 21 162 17.7 17.7 0.00 0.00 0.00 87 1015.5
20240723022215 21 165 12.9 16.1 0.00 0.00 0.00 85 1015.3
20240723015945 21 147 4.8 11.3 0.00 0.00 0.00 84 1015.2
20240723013745 21 96 0.0 0.0 0.00 0.00 0.00 76 1014.9
20240723011545 21 84 0.0 3.2 0.00 0.00 0.00 75 1014.6
20240723005345 21 108 3.2 11.3 0.00 0.00 0.00 77 1014.5
20240723003144 21 109 0.0 4.8 0.00 0.00 0.00 75 1014.5
20240723001014 21 121 0.0 3.2 0.00 0.00 0.00 76 1014.5
20240722234745 21 129 1.6 11.3 0.00 0.00 0.00 76 1014.4
20240722232543 22 71 4.8 9.7 0.00 0.00 0.00 76 1014.5
20240722230343 22 116 9.7 11.3 0.00 0.00 0.00 75 1014.6
20240722224212 22 96 8.0 12.9 0.00 0.00 0.00 75 1014.7
20240722221942 22 117 14.5 17.7 0.00 0.00 0.00 71 1014.7
20240722215812 22 64 4.8 12.9 0.00 0.00 0.00 72 1014.7
20240722213542 22 360 14.5 16.1 0.00 0.00 0.00 78 1014.7
20240722211343 22 120 11.3 16.1 0.00 0.00 0.00 79 1014.9
20240722205141 23 124 3.2 12.9 0.00 0.00 0.00 76 1015.1
20240722203011 22 118 11.3 14.5 0.00 0.00 0.00 80 1015.5
20240722200742 22 360 12.9 14.5 0.00 0.00 0.00 80 1015.7
20240722194540 22 139 11.3 12.9 0.00 0.00 0.00 79 1016.0
20240722192410 22 130 9.7 9.7 0.00 0.00 0.00 82 1016.1
20240722190140 22 128 6.4 11.3 0.00 0.00 0.00 83 1016.3
20240722184009 22 360 8.0 11.3 0.00 0.00 0.00 83 1016.3
20240722181740 23 135 6.4 8.0 0.00 0.00 0.00 78 1016.4
20240722175539 24 156 8.0 9.7 0.00 0.00 0.00 78 1016.7
20240722173339 23 164 4.8 6.4 0.00 0.00 0.00 75 1016.7
20240722171138 22 157 3.2 6.4 0.00 0.00 0.00 85 1017.0
20240722164938 21 360 4.8 11.3 0.00 0.00 0.00 86 1017.0
20240722162738 21 130 0.0 0.0 0.00 0.00 0.00 85 1017.3
20240722160537 21 360 0.0 0.0 0.00 0.00 0.00 82 1017.5
20240722154337 21 360 0.0 0.0 0.00 0.00 0.00 83 1017.7
20240722152137 21 140 0.0 0.0 0.00 0.00 0.00 84 1017.8
20240722145936 21 134 0.0 0.0 0.00 0.00 0.00 80 1017.6
20240722143806 22 137 0.0 0.0 0.00 0.00 0.00 82 1017.6
20240722141536 21 132 0.0 0.0 0.00 0.00 0.00 83 1017.5
20240722135336 21 119 0.0 0.0 0.00 0.00 0.00 82 1017.5
20240722133205 21 130 0.0 0.0 0.00 0.00 0.00 84 1017.5
20240722130935 21 112 0.0 0.0 0.00 0.00 0.00 83 1017.5
20240722124806 20 43 0.0 0.0 0.00 0.00 0.00 84 1017.5
20240722122534 18 34 0.0 0.0 0.00 0.00 0.00 90 1017.5
20240722120334 17 33 0.0 0.0 0.00 0.00 0.00 90 1017.5
20240722114204 17 30 0.0 0.0 0.00 0.00 0.00 92 1017.6
20240722111935 17 31 0.0 0.0 0.00 0.00 0.00 92 1017.6
20240722105734 17 27 0.0 0.0 0.00 0.00 0.00 92 1017.5
20240722103533 17 26 0.0 0.0 0.00 0.00 0.00 92 1017.7
20240722101333 17 32 0.0 0.0 0.00 0.00 0.00 91 1017.6
20240722095132 16 29 0.0 0.0 0.00 0.00 0.00 91 1017.7
20240722093002 16 30 0.0 0.0 0.00 0.00 0.00 91 1017.7
20240722090732 16 30 0.0 0.0 0.00 0.00 0.00 91 1017.6
20240722084532 16 30 0.0 0.0 0.00 0.00 0.00 91 1017.7
20240722082331 17 30 0.0 0.0 0.00 0.00 0.00 91 1017.7
20240722080131 17 30 0.0 0.0 0.00 0.00 0.00 90 1017.6
20240722073932 17 28 0.0 0.0 0.00 0.00 0.00 91 1017.9
20240722071730 17 24 0.0 0.0 0.00 0.00 0.00 91 1018.1
20240722065630 17 36 0.0 0.0 0.00 0.00 0.00 91 1018.1
20240722063330 17 38 0.0 0.0 0.00 0.00 0.00 93 1018.5
20240722061200 17 38 0.0 0.0 0.00 0.00 0.00 93 1018.7
20240722054929 16 38 0.0 0.0 0.00 0.00 0.00 92 1018.7